Temp
10 11 11 11 10 10 10 11 11 12 12 13 13 13 14 14 14 14 15 16 15 15 15 15 16 15 15 14 14 15 15 16 15 14 14 13 13 13 13 15 13 12 12 13 12
10 10 11 11 11 11 10 10 11 11 12 12 13 13 14 14 14 15 15 15 16 16 16 16 16 16 16 15 15 15 15 15 15 15 14 14 14 15 15 15 15 14 13 13 13
10 10 11 11 11 11 11 10 10 11 11 12 12 13 13 14 15 16 16 16 16 16 16 16 16 16 16 16 15 16 16 16 16 15 15 15 15 15 15 15 15 15 15 14 13
10 10 10 11 11 11 11 11 11 11 11 11 12 13 13 14 14 15 16 16 16 17 16 16 16 16 16 16 16 16 17 16 16 16 15 15 15 15 15 15 15 15 15 15 14
10 10 10 10 11 11 11 11 11 11 11 11 11 12 13 14 14 14 16 16 16 17 16 16 16 16 16 16 17 17 17 16 16 15 15 15 15 15 14 14 15 15 15 15 15
11 11 10 10 11 11 11 11 11 11 11 11 11 12 13 14 14 14 15 16 16 17 16 16 17 16 16 17 17 17 17 16 16 15 15 15 14 13 14 14 14 14 15 15 15
11 11 11 11 11 11 11 11 12 11 11 11 11 12 13 14 14 14 14 15 16 17 17 17 16 16 17 17 16 17 16 15 15 15 15 15 15 14 14 14 14 14 14 15 15
10 11 11 11 11 11 11 11 11 11 11 11 12 12 13 13 14 14 14 15 16 16 16 16 16 16 16 16 17 16 15 15 15 16 16 16 16 14 14 14 14 14 14 14 15
10 11 11 11 11 11 11 10 11 11 12 12 12 12 13 13 14 13 14 15 16 16 16 16 16 16 16 16 15 16 15 14 15 16 16 16 16 14 13 13 13 13 14 14 14
10 10 11 11 11 11 11 10 11 11 12 12 12 12 12 12 12 12 13 15 16 15 15 15 16 16 16 16 16 15 14 16 17 16 16 16 17 16 15 12 12 12 13 14 14
10 10 10 10 11 11 11 10 11 10 11 12 11 12 12 11 12 12 12 13 15 15 15 15 15 16 17 17 16 16 15 17 18 17 17 16 17 17 16 15 13 13 13 13 13
9 9 10 10 11 11 11 10 10 10 12 12 12 12 13 12 12 12 12 12 14 15 15 15 16 17 17 17 17 17 16 16 16 17 16 16 17 16 16 16 16 16 15 15 13
9 9 10 10 10 10 10 10 9 9 9 15 14 14 14 12 12 12 11 11 13 14 14 15 16 16 16 17 17 16 17 18 17 16 15 16 15 15 15 15 15 15 15 14 15
9 9 9 10 10 10 10 10 9 8 9 14 13 13 14 12 12 12 11 12 12 13 14 14 16 16 17 17 17 17 18 18 17 16 15 16 14 16 15 15 15 15 15 15 15
9 9 9 10 10 9 10 9 9 8 6 13 13 13 14 13 13 12 12 12 12 12 13 14 15 17 17 17 17 18 18 18 17 16 16 14 15 17 16 15 16 16 16 16 16
8 8 9 9 10 9 9 9 8 8 7 13 12 12 13 13 12 13 12 12 13 13 14 14 15 16 17 17 17 18 17 17 17 16 14 17 15 17 17 18 19 17 16 16 16
8 7 8 9 9 9 9 9 8 8 11 13 12 12 12 13 13 13 13 13 12 13 14 14 14 15 16 17 17 17 16 16 14 12 11 17 14 17 19 19 19 19 18 17 16
8 7 8 8 8 9 8 7 7 10 12 13 12 13 13 13 13 13 13 13 13 13 14 14 14 15 16 16 16 17 17 16 12 10 14 16 14 17 19 19 18 18 18 17 17
7 7 8 8 8 8 8 7 8 10 11 10 11 12 13 13 13 13 13 13 14 14 14 14 14 15 16 16 16 17 17 17 17 15 14 17 18 18 19 19 18 18 18 17 17
7 7 7 7 8 8 8 7 9 10 9 10 10 11 11 12 12 12 12 14 14 14 14 14 15 15 16 16 16 17 17 17 16 12 13 15 17 19 19 20 19 18 18 18 18
6 7 7 7 8 7 7 8 9 9 8 9 9 10 10 11 11 11 11 13 13 14 14 14 14 15 16 16 17 17 17 17 17 17 10 11 16 19 19 19 19 19 19 18 18
4 5 6 6 6 6 7 8 8 8 8 8 8 9 9 10 10 11 12 13 14 14 14 14 15 15 15 16 17 17 18 18 17 15 17 17 18 19 19 19 19 19 19 18 17
3 5 4 5 5 6 6 7 7 7 7 8 8 9 9 9 9 11 12 14 14 14 14 15 14 15 15 16 16 16 17 17 18 19 18 15 18 19 19 19 19 18 18 18 17
1 3 3 4 4 5 5 6 6 6 6 7 7 7 8 9 10 11 12 13 14 16 15 15 15 15 15 16 16 17 17 18 18 18 18 18 19 18 19 18 18 18 18 17 17
-0 0 2 2 2 3 3 4 5 6 6 7 7 8 9 9 11 11 11 13 13 14 15 16 15 15 16 16 16 17 18 18 18 19 19 19 19 18 18 18 18 18 17 17 17
-2 -1 0 2 2 2 3 3 4 5 5 7 8 9 9 9 11 11 11 12 12 14 13 15 15 16 16 17 17 17 18 18 18 19 19 19 19 18 18 18 18 17 17 17 17
-2 -2 -1 -0 1 1 2 3 4 5 6 6 6 7 9 9 10 11 11 11 12 11 12 14 15 16 16 16 17 16 17 18 18 18 19 18 19 18 18 18 18 17 17 17 16
Height
3165 3164 3162 3160 3158 3156 3154 3153 3151 3149 3149 3149 3149 3149 3150 3151 3151 3152 3153 3160 3161 3163 3166 3169 3171 3173 3172 3173 3173 3172 3175 3175 3175 3176 3175 3177 3178 3179 3179 3179 3180 3181 3183 3183 3183
3162 3160 3159 3158 3156 3153 3152 3150 3149 3147 3145 3144 3144 3144 3144 3145 3144 3145 3150 3149 3155 3159 3164 3167 3168 3170 3171 3173 3173 3173 3173 3174 3173 3175 3176 3177 3179 3178 3179 3179 3180 3181 3182 3184 3184
3159 3157 3156 3155 3153 3151 3148 3147 3145 3144 3142 3141 3140 3140 3140 3139 3140 3140 3144 3147 3152 3157 3162 3164 3166 3167 3169 3171 3172 3171 3170 3172 3174 3174 3176 3177 3179 3180 3180 3181 3182 3182 3182 3184 3185
3156 3154 3152 3151 3150 3148 3146 3144 3142 3141 3140 3138 3136 3136 3136 3136 3138 3136 3138 3143 3147 3153 3159 3162 3163 3164 3166 3170 3171 3169 3167 3169 3171 3172 3175 3177 3179 3181 3181 3183 3181 3183 3184 3185 3186
3153 3151 3149 3147 3146 3145 3143 3141 3139 3137 3137 3135 3133 3132 3132 3132 3133 3131 3134 3137 3142 3149 3156 3159 3160 3163 3166 3169 3169 3167 3166 3167 3171 3174 3177 3178 3178 3180 3181 3182 3183 3183 3185 3186 3187
3151 3148 3146 3144 3142 3141 3140 3138 3136 3134 3133 3132 3131 3129 3128 3129 3129 3129 3132 3135 3140 3146 3153 3155 3159 3163 3165 3167 3165 3164 3165 3167 3172 3174 3174 3175 3177 3179 3180 3181 3182 3184 3185 3187 3187
3147 3146 3143 3141 3140 3138 3136 3134 3132 3131 3129 3128 3127 3125 3124 3127 3125 3126 3129 3133 3138 3144 3150 3153 3158 3161 3163 3165 3163 3165 3167 3170 3173 3174 3174 3176 3177 3177 3179 3180 3182 3183 3184 3185 3187
3141 3141 3140 3138 3136 3135 3133 3130 3129 3127 3125 3124 3124 3122 3119 3121 3122 3125 3127 3131 3134 3138 3142 3149 3153 3157 3159 3161 3161 3163 3169 3167 3172 3173 3174 3176 3175 3175 3176 3177 3178 3181 3182 3183 3185
3137 3136 3135 3134 3133 3131 3129 3126 3125 3123 3121 3119 3119 3119 3118 3117 3119 3121 3124 3130 3133 3136 3140 3144 3149 3152 3156 3160 3161 3161 3165 3166 3170 3171 3172 3173 3172 3173 3174 3176 3177 3178 3180 3181 3183
3134 3133 3131 3129 3128 3127 3126 3122 3120 3119 3117 3115 3114 3117 3116 3114 3114 3114 3120 3124 3129 3133 3138 3140 3143 3146 3150 3155 3158 3161 3166 3163 3162 3167 3168 3169 3170 3170 3171 3173 3174 3177 3178 3179 3180
3129 3128 3127 3125 3124 3123 3123 3120 3119 3116 3112 3112 3111 3109 3112 3112 3112 3112 3115 3120 3123 3127 3131 3136 3137 3137 3146 3152 3157 3162 3164 3160 3162 3163 3164 3166 3168 3170 3171 3171 3171 3174 3176 3177 3179
3124 3123 3122 3121 3120 3119 3119 3116 3112 3110 3103 3107 3102 3099 3103 3107 3106 3109 3110 3115 3117 3119 3126 3132 3130 3138 3145 3149 3152 3158 3160 3161 3163 3162 3165 3166 3167 3169 3170 3170 3171 3173 3175 3176 3176
3118 3118 3117 3116 3117 3116 3114 3113 3110 3107 3100 3090 3091 3087 3093 3099 3100 3104 3107 3109 3112 3116 3120 3122 3129 3137 3141 3145 3148 3152 3154 3156 3160 3162 3164 3166 3169 3167 3169 3170 3171 3172 3173 3174 3175
3112 3112 3112 3113 3113 3111 3111 3110 3109 3108 3100 3088 3086 3083 3083 3090 3092 3100 3102 3107 3110 3112 3118 3122 3129 3132 3136 3140 3144 3146 3151 3154 3156 3158 3157 3160 3162 3162 3164 3166 3167 3168 3168 3170 3172
3107 3105 3105 3106 3107 3107 3108 3107 3108 3108 3105 3090 3086 3084 3082 3085 3091 3092 3099 3103 3105 3110 3115 3116 3121 3126 3129 3136 3141 3145 3149 3151 3152 3153 3153 3154 3158 3154 3160 3161 3159 3160 3163 3166 3169
3102 3098 3099 3100 3102 3102 3102 3104 3107 3110 3100 3089 3086 3084 3082 3082 3089 3092 3096 3101 3106 3110 3111 3115 3120 3125 3127 3134 3137 3143 3144 3145 3146 3146 3147 3145 3150 3147 3150 3151 3153 3156 3159 3161 3164
3094 3094 3093 3094 3096 3097 3098 3100 3104 3100 3093 3089 3086 3084 3083 3084 3089 3091 3094 3096 3098 3104 3105 3110 3113 3119 3124 3128 3133 3135 3140 3143 3144 3144 3143 3141 3145 3142 3144 3146 3149 3151 3155 3157 3160
3088 3087 3089 3089 3089 3091 3093 3096 3091 3087 3086 3084 3084 3082 3085 3086 3090 3091 3092 3093 3097 3100 3103 3104 3108 3110 3116 3119 3125 3130 3134 3137 3143 3145 3137 3136 3138 3135 3140 3142 3146 3149 3153 3155 3156
3081 3081 3082 3083 3083 3086 3087 3084 3080 3082 3084 3084 3083 3081 3083 3085 3087 3089 3090 3091 3092 3095 3099 3100 3100 3108 3112 3118 3123 3124 3124 3131 3131 3132 3131 3129 3131 3132 3135 3137 3139 3142 3147 3148 3150
3074 3075 3075 3076 3077 3078 3077 3073 3074 3078 3080 3080 3080 3080 3079 3080 3084 3084 3083 3086 3088 3091 3096 3098 3099 3102 3108 3114 3114 3116 3123 3124 3122 3127 3129 3125 3124 3126 3129 3130 3131 3134 3139 3142 3146
3067 3067 3068 3068 3069 3068 3065 3066 3069 3073 3076 3077 3077 3076 3076 3076 3078 3080 3079 3079 3082 3087 3091 3093 3095 3098 3102 3100 3104 3110 3110 3114 3118 3115 3117 3124 3117 3122 3124 3127 3128 3130 3134 3138 3143
3059 3060 3061 3059 3061 3059 3058 3063 3066 3066 3070 3071 3070 3070 3071 3074 3072 3074 3071 3072 3075 3078 3079 3085 3089 3091 3089 3096 3101 3103 3105 3108 3109 3111 3111 3113 3113 3118 3120 3124 3124 3128 3131 3136 3141
3052 3053 3051 3052 3051 3053 3056 3055 3057 3058 3061 3062 3064 3066 3067 3068 3068 3064 3065 3062 3064 3064 3066 3075 3079 3083 3085 3090 3091 3092 3097 3101 3103 3104 3103 3108 3111 3113 3116 3120 3122 3125 3128 3133 3137
3047 3047 3045 3044 3046 3047 3047 3048 3049 3051 3053 3054 3056 3060 3061 3059 3061 3058 3058 3056 3054 3050 3057 3066 3069 3072 3072 3076 3084 3088 3091 3092 3096 3095 3098 3100 3105 3108 3112 3115 3117 3120 3124 3128 3130
3041 3040 3039 3039 3039 3041 3040 3042 3043 3044 3046 3049 3050 3053 3053 3052 3053 3058 3059 3053 3052 3049 3053 3056 3061 3066 3068 3072 3078 3081 3084 3085 3086 3090 3093 3097 3099 3103 3108 3110 3113 3115 3120 3123 3125
3036 3034 3034 3034 3035 3034 3035 3036 3038 3038 3040 3042 3043 3046 3046 3046 3047 3050 3050 3052 3051 3047 3045 3046 3053 3057 3061 3066 3072 3076 3076 3079 3082 3083 3087 3090 3094 3099 3102 3105 3108 3112 3115 3117 3119
3028 3028 3028 3028 3028 3028 3029 3028 3032 3032 3036 3037 3036 3039 3040 3041 3041 3044 3050 3053 3050 3045 3043 3043 3045 3051 3054 3061 3066 3069 3068 3070 3073 3077 3080 3084 3090 3094 3096 3100 3103 3107 3108 3111 3115
Wind_Speed
14 14 14 14 15 15 15 14 13 14 17 20 21 22 22 21 23 25 23 25 30 29 26 21 15 11 13 13 11 10 1 3 5 24 20 17 15 13 11 11 10 8 9 14 21
13 14 14 15 15 16 16 14 13 13 13 15 18 19 19 19 20 20 15 25 30 32 27 21 19 15 14 17 19 17 14 13 2 23 21 16 12 5 11 11 7 10 14 15 15
14 14 15 15 15 16 17 16 14 13 14 13 16 17 17 17 17 14 17 20 27 34 29 24 21 19 19 19 18 15 21 7 8 16 18 17 13 9 12 11 8 4 9 14 16
15 14 14 15 16 16 16 18 16 15 15 15 15 16 16 14 6 9 18 23 26 35 32 28 27 24 21 20 14 17 16 12 14 19 24 17 12 13 8 10 9 6 7 11 12
18 17 15 15 16 16 16 17 18 17 16 17 16 14 15 14 7 14 19 25 28 35 35 32 30 26 21 14 14 20 16 18 21 20 18 12 12 11 11 7 8 7 8 8 10
18 19 18 17 16 16 16 16 17 18 17 18 17 15 16 11 11 15 17 25 27 37 36 35 31 25 16 10 10 20 18 27 26 23 18 12 12 17 16 11 9 9 6 8 8
17 19 20 20 19 17 16 17 17 17 20 18 19 18 16 7 14 18 19 26 30 34 37 36 27 23 20 6 5 25 29 30 28 27 21 16 11 15 16 16 11 10 9 9 8
17 18 19 20 21 19 17 19 19 18 19 20 20 20 16 12 13 16 20 29 35 38 37 30 28 26 19 3 10 19 37 37 32 27 17 13 8 10 16 19 17 14 12 11 9
20 19 19 19 20 20 18 20 20 20 20 21 21 20 11 11 10 13 20 26 33 36 35 32 31 30 18 9 21 35 42 34 33 25 20 14 9 9 14 21 19 16 14 12 12
21 19 19 19 20 18 17 21 22 21 22 23 23 20 13 11 13 19 14 25 36 34 33 33 33 31 25 17 22 39 37 30 24 29 25 20 12 5 7 12 21 19 18 15 15
22 19 18 19 19 19 15 20 23 24 24 25 26 25 12 16 18 20 19 22 37 36 38 36 36 39 31 23 13 39 33 31 23 26 29 26 21 11 8 8 12 19 19 17 15
22 20 17 18 18 18 17 18 25 27 32 23 29 32 17 22 23 23 24 25 36 40 37 37 43 40 31 25 21 26 14 27 24 31 33 27 22 13 9 5 11 13 14 14 14
23 21 19 17 17 17 16 19 21 25 32 34 21 26 21 29 29 29 27 27 36 39 37 42 44 38 35 31 27 19 19 16 18 31 29 22 20 23 19 15 16 15 9 9 11
24 23 21 17 17 17 15 17 19 18 24 23 13 12 21 34 34 28 29 31 32 38 34 35 41 41 37 35 29 25 20 16 12 25 27 29 16 30 27 25 25 23 20 15 13
23 23 21 19 16 17 16 14 12 10 6 13 9 10 11 39 26 33 29 27 36 29 35 29 37 52 43 40 33 27 21 17 18 23 31 35 15 28 31 32 29 28 23 22 18
22 23 19 19 17 15 17 13 11 6 10 8 16 13 13 31 24 24 29 27 31 29 33 35 18 44 52 42 32 26 24 22 23 21 18 38 33 25 32 31 22 28 25 25 22
21 22 20 18 15 15 17 13 11 9 7 3 6 7 9 22 25 17 28 34 37 34 31 33 33 31 36 48 37 33 26 6 3 3 6 35 31 32 23 27 23 17 15 14 24
21 21 20 19 16 16 18 18 16 13 31 13 7 8 7 14 28 23 30 36 38 33 30 25 27 38 35 37 36 36 31 18 7 5 9 14 17 44 33 29 22 20 17 14 16
22 22 19 20 18 17 22 27 23 32 22 16 21 20 18 8 11 21 28 36 36 42 30 27 38 35 41 34 33 34 33 28 29 8 4 13 20 31 30 20 24 23 29 22 22
22 21 21 22 19 21 27 35 31 34 18 13 15 10 14 17 14 8 10 31 39 34 42 30 11 36 38 36 34 35 30 18 13 6 5 8 10 12 17 23 22 26 28 26 22
23 22 20 22 23 26 34 36 34 35 13 16 21 24 26 28 27 24 21 21 24 37 40 42 31 27 29 40 38 34 35 33 27 22 7 4 15 21 15 21 21 21 19 27 20
23 21 19 23 26 28 31 31 31 33 25 23 23 24 26 25 28 26 28 20 19 34 45 48 36 40 37 33 32 30 35 37 30 10 14 16 21 15 16 14 22 20 22 22 18
21 22 24 22 28 29 28 26 24 24 21 25 24 22 19 20 18 22 23 22 25 28 45 47 45 30 32 39 34 34 31 30 40 35 27 15 16 16 15 14 15 18 24 19 22
21 13 15 25 25 26 28 31 30 25 22 22 23 20 16 21 22 19 26 25 23 21 36 46 45 45 32 32 32 28 32 30 39 33 25 30 20 17 17 21 20 21 25 21 21
20 17 20 13 24 32 33 30 30 28 22 19 21 17 17 18 26 22 26 24 19 8 33 47 45 44 49 49 32 23 22 27 40 38 33 29 26 24 20 20 21 24 26 23 22
21 23 24 24 21 23 25 24 25 22 19 15 16 18 17 17 26 24 21 16 13 5 13 33 45 49 47 45 46 38 33 31 40 38 37 36 31 27 21 22 26 28 28 29 27
23 24 25 22 19 21 19 21 21 20 17 11 9 16 19 18 22 28 29 24 20 23 18 5 46 43 40 39 35 27 23 26 38 44 39 35 30 30 19 26 27 29 29 31 28
Wind_Direction
295 294 296 299 298 298 303 296 294 291 281 275 270 269 268 262 253 247 244 224 230 236 233 234 210 248 254 226 206 203 197 20 260 191 187 166 167 145 123 99 122 160 161 153 156
300 294 292 296 301 297 298 298 289 295 289 283 278 275 272 269 259 248 234 222 211 218 214 217 226 242 233 222 224 237 258 270 246 198 182 169 184 140 139 125 113 145 164 167 154
307 299 293 293 297 300 296 299 288 290 289 285 287 285 278 274 268 246 221 220 206 204 204 204 219 227 218 216 231 265 271 263 246 212 200 181 186 174 155 148 134 124 135 159 151
306 304 296 291 293 297 296 296 297 284 287 285 288 292 286 272 266 231 205 205 204 199 199 196 210 225 228 215 220 293 265 224 218 207 201 193 195 179 156 158 132 136 154 157 156
300 302 301 294 290 291 295 294 297 290 287 286 286 292 287 268 224 219 196 193 195 193 195 199 209 219 230 231 252 261 213 185 199 184 188 207 212 195 177 189 155 147 178 175 164
298 299 299 300 293 289 289 293 295 298 286 288 286 288 283 268 229 211 197 187 190 190 196 205 209 219 226 237 258 204 198 169 180 174 185 200 198 200 196 207 176 160 182 185 183
295 297 299 298 300 293 288 287 292 294 291 286 284 286 275 211 229 204 195 182 184 181 196 206 209 211 219 196 132 193 166 168 173 178 177 188 191 209 221 215 204 180 183 187 182
287 290 293 295 296 298 291 287 288 290 292 285 283 285 273 239 234 212 199 184 184 182 191 197 200 204 213 141 185 192 174 164 178 182 185 188 208 188 209 207 199 199 193 195 197
289 290 290 289 292 294 297 288 290 287 288 281 279 282 281 247 231 205 209 191 193 190 188 193 202 208 211 187 168 180 175 173 179 201 207 203 205 199 200 216 221 215 212 202 206
285 289 291 289 288 292 291 292 292 287 283 283 283 280 243 203 196 195 212 199 195 198 192 195 203 211 214 195 180 176 191 191 205 202 212 220 234 223 196 210 214 222 219 213 227
281 281 285 289 288 290 284 287 291 288 289 283 275 274 255 200 204 194 197 202 197 201 197 195 205 211 213 212 194 197 202 207 225 218 215 224 240 235 188 185 198 207 222 218 208
281 279 278 282 285 287 287 285 291 295 295 280 281 271 252 214 209 188 196 212 200 201 196 199 210 211 217 218 220 187 209 220 223 218 214 220 233 236 204 220 164 164 166 164 170
283 280 274 274 282 282 280 276 283 294 298 312 303 263 236 215 217 193 198 206 206 201 200 203 206 209 217 218 221 223 223 224 243 217 207 224 215 218 207 204 199 197 192 198 178
285 279 276 269 275 275 271 270 280 294 307 314 336 319 223 205 225 199 204 203 213 212 203 212 202 213 217 221 222 231 221 241 266 209 197 209 208 218 219 217 219 220 215 194 196
284 279 274 268 266 269 262 261 270 289 320 303 319 318 219 208 223 204 199 202 209 207 203 206 205 208 217 217 221 225 227 244 274 226 214 200 220 226 219 228 229 231 220 215 206
279 277 267 266 264 262 255 245 241 243 253 290 317 308 263 203 207 201 198 205 205 208 216 217 201 210 219 217 227 220 244 268 282 238 202 213 207 222 221 235 239 235 233 228 221
273 271 267 255 255 254 247 226 205 209 255 331 78 34 262 212 202 193 200 201 202 210 219 221 219 212 216 221 228 231 246 269 282 201 213 219 207 225 245 252 248 244 234 231 233
272 265 258 260 254 241 237 215 219 237 244 263 257 313 338 216 214 216 207 205 209 207 220 215 222 212 207 218 229 233 238 222 190 203 221 207 200 233 251 260 250 245 239 235 240
271 261 249 246 254 238 232 217 228 236 253 274 277 293 285 184 215 234 232 224 216 213 216 220 234 220 222 220 228 236 248 255 252 244 183 211 229 241 237 248 237 237 229 217 225
269 257 248 248 244 240 236 232 236 241 236 242 278 278 287 273 300 288 311 240 228 224 215 229 232 227 219 227 237 240 247 247 227 168 232 209 205 211 224 249 280 232 209 213 217
276 261 249 244 242 230 231 239 243 240 230 252 266 272 271 278 285 292 286 269 248 236 225 225 231 222 218 224 228 232 236 244 255 237 173 223 242 240 261 249 256 210 221 216 217
276 267 246 230 235 231 235 245 249 251 250 253 262 260 272 281 283 286 279 277 269 239 228 227 232 236 233 224 229 235 241 245 231 225 217 235 237 239 241 266 228 219 220 208 207
274 263 255 243 232 228 236 238 248 251 258 257 262 256 258 279 287 270 273 285 294 274 229 219 220 222 241 244 228 232 236 239 243 233 220 206 228 238 233 207 206 223 210 204 212
286 264 243 237 227 227 234 237 240 241 256 246 264 270 282 272 231 264 275 290 310 261 224 218 217 218 225 230 223 228 237 251 233 217 222 228 225 217 224 204 197 201 208 207 208
277 258 235 224 231 237 242 252 251 259 260 255 268 260 242 273 224 244 266 291 308 194 227 218 219 222 230 236 229 220 237 249 232 224 222 225 235 232 233 226 223 212 201 213 222
269 262 255 246 240 240 237 249 260 261 267 269 257 248 234 229 222 235 242 278 288 320 14 220 216 221 230 235 240 246 250 247 227 217 227 235 235 237 242 233 220 205 207 213 221
267 264 263 255 245 251 255 241 238 245 250 248 223 228 232 227 212 217 232 257 280 290 326 292 213 216 223 232 228 229 251 261 227 226 223 223 230 239 236 219 221 223 229 227 221